TimeCDT,TemperatureF,Dew PointF,Humidity,Sea Level PressureIn,VisibilityMPH,Wind Direction,Wind SpeedMPH,Gust SpeedMPH,PrecipitationIn,Events,Conditions,WindDirDegrees,DateUTC
12:53 AM,77.0,73.9,90,30.21,10.0,Calm,Calm,-,N/A,,Clear,0,2013-07-18 05:53:00
1:53 AM,77.0,73.0,88,30.19,10.0,Calm,Calm,-,N/A,,Partly Cloudy,0,2013-07-18 06:53:00
2:53 AM,75.0,72.0,90,30.17,9.0,Calm,Calm,-,N/A,,Clear,0,2013-07-18 07:53:00
3:53 AM,75.0,72.0,90,30.17,9.0,ESE,3.5,-,N/A,,Clear,120,2013-07-18 08:53:00
4:53 AM,73.9,72.0,93,30.17,7.0,Calm,Calm,-,N/A,,Clear,0,2013-07-18 09:53:00
5:53 AM,73.0,71.1,93,30.17,5.0,Calm,Calm,-,N/A,,Clear,0,2013-07-18 10:53:00
6:53 AM,77.0,73.0,88,30.17,7.0,Calm,Calm,-,N/A,,Clear,0,2013-07-18 11:53:00
7:53 AM,81.0,73.9,79,30.18,10.0,Calm,Calm,-,N/A,,Clear,0,2013-07-18 12:53:00
8:53 AM,86.0,73.9,67,30.18,10.0,Calm,Calm,-,N/A,,Clear,0,2013-07-18 13:53:00
9:53 AM,89.1,71.1,55,30.17,10.0,Calm,Calm,-,N/A,,Clear,0,2013-07-18 14:53:00
10:53 AM,90.0,71.1,54,30.17,10.0,Variable,3.5,-,N/A,,Clear,0,2013-07-18 15:53:00
11:32 AM,91.4,71.6,52,30.17,10.0,Calm,Calm,-,N/A,,Clear,0,2013-07-18 16:32:00
11:53 AM,91.9,72.0,52,30.15,10.0,Variable,3.5,-,N/A,,Clear,0,2013-07-18 16:53:00
12:53 PM,93.0,72.0,50,30.13,10.0,South,8.1,-,N/A,,Clear,170,2013-07-18 17:53:00
1:53 PM,95.0,71.1,46,30.09,10.0,SE,4.6,-,N/A,,Partly Cloudy,140,2013-07-18 18:53:00
2:53 PM,95.0,70.0,44,30.07,10.0,SW,5.8,-,N/A,,Partly Cloudy,220,2013-07-18 19:53:00
3:53 PM,93.9,70.0,46,30.04,10.0,South,6.9,-,N/A,,Scattered Clouds,180,2013-07-18 20:53:00
4:53 PM,96.1,70.0,43,30.04,10.0,WSW,3.5,-,N/A,,Clear,250,2013-07-18 21:53:00
5:53 PM,93.0,71.1,49,30.03,10.0,South,3.5,-,N/A,,Partly Cloudy,170,2013-07-18 22:53:00
6:53 PM,91.9,71.1,50,30.02,10.0,SSW,3.5,-,N/A,,Clear,210,2013-07-18 23:53:00
7:53 PM,89.1,73.0,59,30.02,10.0,South,5.8,-,N/A,,Clear,170,2013-07-19 00:53:00
8:53 PM,86.0,73.9,67,30.02,10.0,South,3.5,-,N/A,,Clear,170,2013-07-19 01:53:00
9:53 PM,84.0,73.0,69,30.03,10.0,SSE,4.6,-,N/A,,Clear,150,2013-07-19 02:53:00
10:53 PM,81.0,73.0,77,30.03,10.0,South,3.5,-,N/A,,Clear,170,2013-07-19 03:53:00
11:53 PM,80.1,72.0,76,30.03,10.0,South,4.6,-,N/A,,Clear,170,2013-07-19 04:53:00